Regional Weather Roundup
Issued by NWS

Home | Current Version | Previous Version | Graphics & Text | Print | Product List | Glossary On
Versions: 1 2 3 4 5 6 7 8 9 10 11 12 13 14 15 16 17 18 19 20 21 22 23 24 25 26 27 28 29 30 31 32 33 34 35 36 37 38 39 40 41 42 43 44 45 46 47 48 49 50
000
ASUS43 KTOP 231359
RWRKS

WEATHER ROUNDUP FOR KANSAS
NATIONAL WEATHER SERVICE GOODLAND KS
900 AM CDT TUE AUG 23 2016

NOTE:  "FAIR" INDICATES FEW OR NO CLOUDS BELOW 12,000 FEET WITH NO
SIGNIFICANT WEATHER AND/OR OBSTRUCTIONS TO VISIBILITY.

KSZ001>006-013>018-027>032-041>047-231500-
NORTHWEST KANSAS

CITY           SKY/WX    TMP DP  RH WIND       PRES   REMARKS
GOODLAND       SUNNY     65  53  65 W9        29.89R
HAYS           CLOUDY    75  63  64 S24G32    29.86S
HILL CITY      SUNNY     75  66  73 S12G24    29.85F
RUSSELL        MOSUNNY   75  68  78 S26G33    29.87F
$$

KSZ061>065-074>080-084>089-231500-
SOUTHWEST KANSAS

CITY           SKY/WX    TMP DP  RH WIND       PRES   REMARKS
DODGE CITY     MOSUNNY   74  67  78 S17G29    29.94R
ELKHART          N/A     71  57  61 S12         N/A
GARDEN CITY    SUNNY     72  63  73 S16       29.91F
GREAT BEND     MOSUNNY   75  64  69 S18G28    29.92S
LIBERAL        SUNNY     75  64  69 S21G26    29.96F
$$

KSZ066>073-081>083-090>101-231500-
SOUTHEAST KANSAS

CITY           SKY/WX    TMP DP  RH WIND       PRES   REMARKS
CHANUTE        CLOUDY    76  72  87 SE10      30.07R
COFFEYVILLE    CLOUDY    76  72  87 S12       30.07R
HUTCHINSON     CLOUDY    77  71  82 S18       29.97R
MEDICINE LODGE   N/A     76  70  82 S10       29.98
NEWTON         CLOUDY    75  71  87 S22G29    29.99S
PARSONS        CLOUDY    76  72  87 S8        30.09R
WICHITA INTL   PTSUNNY   77  72  84 S21G26    29.99S
WICHITA JABRA  CLOUDY    77  72  84 S20G26    30.00S
WICHITA MCCONL PTSUNNY   77  72  85 S23G29    30.00F
WINFIELD       CLOUDY    77  73  87 S15       30.04R
$$

KSZ007>012-019>026-033>040-048>060-102>105-231500-
NORTHEAST KANSAS

CITY           SKY/WX    TMP DP  RH WIND       PRES   REMARKS
CONCORDIA      CLOUDY    75  70  84 S17G26    29.90S
EMPORIA        CLOUDY    75  71  87 S15G26    30.02S
LAWRENCE       CLOUDY    74  70  87 SE9       30.03F
MANHATTAN      CLOUDY    76  71  85 S12G21    29.95F
OLATHE IND     CLOUDY    72  69  90 S13       30.06S
OLATHE EXE     CLOUDY    70  67  90 S8        30.07S
SALINA         PTSUNNY   79  71  76 S21G31    29.93S
TOPEKA BILLARD CLOUDY    75  70  84 S12G20    30.01F
TOPEKA FORBES  CLOUDY    75  70  84 S13       30.02S
$$




USA.gov is the U.S. government's official web portal to all federal, state and local government web resources and services.